Simultaneous Nadir Overpasses (SNOs) Predictions

Prediction of SNOs between GOES-17 and NOAA-20 Satellite Orbit:

Table of predicted SNOs for the next 14.0 days since TLE Epoch: 11/12/2022
Index Date Time (GOES-17) GOES-17 Lat,Lon NOAA-20 Lat,Lon Distance(km) Time Diff (sec)
1 11/12/2022 22:40:09 -0.01,-137.33 -0.44,-139.10 202.31 80
2 11/13/2022 22:24:04 -0.01,-137.33 0.62,-134.58 314.04 80
3 11/15/2022 10:45:50 0.01,-137.32 0.59,-139.84 286.71 80
4 11/16/2022 10:24:26 0.01,-137.32 -0.47,-135.31 229.30 80
5 11/17/2022 22:46:21 -0.00,-137.30 -0.72,-140.61 376.40 80
6 11/18/2022 22:30:16 -0.00,-137.30 0.29,-136.08 139.47 80
7 11/20/2022 10:52:02 0.00,-137.28 0.92,-141.33 461.84 80
8 11/21/2022 10:30:37 0.00,-137.27 -0.08,-136.80 53.55 80
9 11/23/2022 22:33:46 -0.00,-137.22 -0.08,-137.56 38.72 80
10 11/24/2022 22:17:41 -0.00,-137.20 0.93,-133.03 475.74 80
